FENGYUN 1C DEB

Satellite information

Favourite Embed

Satellite Type and Status

DEBRISIN ORBIT

Key statistics

Satellite FENGYUN 1C DEB at a glance.

Uptime

9664

Days in orbit

Revolutions

≈ 14.0

Per day

Orbit

SSO

Sun Synchronous Orbit

Inclination

99.1

Latest

Satellite identification and parameters

Extended collection of information and parameters for FENGYUN 1C DEB.

Object identification

Identified? True

Debris? True

Object name: FENGYUN 1C DEB

International designator: 1999-025BMK

Object number (NORAD): 31253

Object ID (CCSDS): 31253

Country: PEOPLES REPUBLIC OF CHINA (PRC)

Current information (Y/N): Y

RCS size: SMALL

Orbital parameters

Period: 102.603 minutes

Inclination: 99.0826 deg

SMA: 7259.926 km

Apoapsis: 1092.081 km

Periapsis: 671.5 km

RAAN: 359.9469 deg

Eccentricy: 0.0289659

Argument of periapsis: 234.5687 deg

Mean anomaly: 122.812 deg

Mean motion: 14.03474394 rev/day

Mean motion (dot): 0.00001079 rev/day2

B* drag term: 0.00049651 1/REarth

Two-line elements (TLE)

Creation date: Oct. 22, 2025, 6:56 a.m.

Reference frame: TEME

Reference center: EARTH

Epoch: Oct. 21, 2025, 9:56 p.m. UTC

TLE line 0: 0 FENGYUN 1C DEB

TLE line 1: 1 31253U 99025BMK 25294.91443183 .00001079 00000-0 49651-3 0 9999

TLE line 2: 2 31253 99.0826 359.9469 0289659 234.5687 122.8120 14.03474394682718

Live tracking on map

Real-time ground track for satellite FENGYUN 1C DEB.

In-orbit conjunctions

A list of the most updated potential collisions computed for object FENGYUN 1C DEB.

Target Orbit TCA Probability of collision Miss distance Type
ORBCOMM FM 26 LEO 2025-01-22 12:51:15 0.0001088788 276.0 (m) PAYLOAD
COSMOS 1275 DEB LEO 2024-11-12 16:46:24 0.0001755167 454.0 (m) DEBRIS

Associated space launch

Chinese polar orbiting meteorological satellite

FENGYUN 1C DEB was lifted into orbit during the mission ‘Long March 4B | Feng Yun 1C’, on board a Long March 4B space rocket.

The launch took place on May 10, 1999, 1:33 a.m. from Launch Complex 7.

For more information about the launch, click the button.

Launch to space Long March 4B | Feng Yun 1C
Long March 4B | Feng Yun 1C

Agency: N/A

Status: Launch Successful

Launch date: May 10, 1999, 1:33 a.m. UTC

Rocket: Long March 4B

Launch pad: Launch Complex 7

Location: Taiyuan Satellite Launch Center, People's Republic of China

...

Latest news about this satellite

There are no fresh news available about this satellite. Check back as we update our databases every day.


Newsletter sign-up

Weekly statistics, charts and insights to help you stay on top of the space industry.